Location: Estes Park
(40.3770°N, 105.5210°W)
Time: 17:02:57
(UTC-06:00)

ISS - Pass Details

Date: 13 October 2017
Orbit: 401 x 408 km, 51.6° (Epoch: 23 October)

Event Time Altitude Azimuth Distance (km) Brightness Sun altitude
Rises 19:49:46 0° 305° (NW) 2,320 1.0 -17.0°
Reaches altitude 10° 19:51:51 10° 303° (WNW) 1,458 -0.1 -17.4°
Maximum altitude 19:55:07 72° 219° (SW) 427 -3.7 -18.0°
Enters shadow 19:55:51 48° 151° (SSE) 532 -3.5 -18.2°
